Location: Nelson
(38.9945°N, 93.0321°W)
Time: 05:39:13
(UTC+00:00)

Envisat - Visible Passes

Search period start: 21 June 2024 00:00
Search period end: 01 July 2024 00:00
Orbit: 762 x 764 km, 98.3° (Epoch: 20 June)

Date Brightness Start Highest point End Pass type
(mag) Time Alt. Az. Time Alt. Az. Time Alt. Az.
21 Jun 5.2 08:23:32 10° NE 08:27:08 19° E 08:30:42 10° SE visible
21 Jun 3.5 10:01:28 10° N 10:06:18 46° WNW 10:11:06 10° SW visible
22 Jun 3.1 09:23:55 10° NNE 09:29:01 78° ESE 09:34:04 10° S visible
23 Jun 4.4 08:46:58 10° NNE 08:51:32 33° E 08:56:04 10° SSE visible
24 Jun 5.4 08:11:12 10° ENE 08:13:51 14° E 08:16:31 10° ESE visible
24 Jun 3.1 09:48:12 10° N 09:53:12 61° WNW 09:58:11 10° SSW visible
25 Jun 3.5 09:10:51 10° NNE 09:15:51 58° E 09:20:45 10° S visible
26 Jun 4.8 08:34:10 10° NE 08:38:19 25° E 08:42:25 10° SSE visible
26 Jun 3.8 10:12:42 10° N 10:17:18 36° WNW 10:21:53 10° SW visible
27 Jun 5.7 08:00:10 10° E 08:00:33 10° E 08:00:56 10° E visible
27 Jun 3.0 09:35:00 10° N 09:40:05 82° WNW 09:45:09 10° SSW visible
28 Jun 4.0 08:57:51 10° NNE 09:02:41 43° E 09:07:22 10° S visible
29 Jun 5.2 08:21:33 10° NE 08:25:03 19° E 08:28:33 10° SE visible
29 Jun 3.4 09:59:22 10° N 10:04:15 47° WNW 10:09:05 10° SW visible
30 Jun 3.1 09:21:52 10° NNE 09:26:57 75° ESE 09:31:49 11° S visible
